Regional Weather Roundup
Issued by NWS Columbia, SC

Home | Current Version | Previous Version | Text Only | Print | Product List | Glossary On
Versions: 1 2 3 4 5 6 7 8 9 10 11 12 13 14 15 16 17 18 19 20 21 22 23 24 25 26 27 28 29 30 31 32 33 34 35 36 37 38 39 40 41 42 43 44 45 46 47 48 49 50
000
ASUS42 KCAE 072210
RWRCAE
REGIONAL WEATHER ROUNDUP
NATIONAL WEATHER SERVICE COLUMBIA SC
500 PM EST WED DEC 07 2016

NOTE: "FAIR" INDICATES FEW OR NO CLOUDS BELOW 12,000 FEET WITH NO
SIGNIFICANT WEATHER AND/OR OBSTRUCTIONS TO VISIBILITY.

NOT ALL STATIONS ARE QUALITY CONTROLLED BY THE NATIONAL
WEATHER SERVICE. USE DATA WITH CAUTION...ESPECIALLY
DEWPOINT OBSERVATIONS.

SCZ001>056-GAZ040-063>065-077-072300-
...UPSTATE SOUTH CAROLINA...

CITY           SKY/WX    TMP DP  RH WIND       PRES   REMARKS
ANDERSON       CLOUDY    53  48  83 S6        30.04R
LIBERTY        MOCLDY    54  47  77 S3        30.02R
SPARTANBURG    CLOUDY    54  45  71 CALM      30.03S
CLEMSON        CLOUDY    56  46  69 SW3       30.04R
GREENVILLE     CLOUDY    56  46  69 S10       30.03S
GREENWOOD      CLOUDY    50  47  89 W6        30.06R
GREER          MOCLDY    54  46  74 SE6       30.02R
ROCK HILL      CLOUDY    55  45  68 W3        30.04R
CHESTER        MOCLDY    54  46  76 CALM      30.05R
LAURENS          N/A     52  48  87 SW5       30.04R


...CENTRAL SOUTH CAROLINA...

CITY           SKY/WX    TMP DP  RH WIND       PRES   REMARKS
COLUMBIA APT   CLOUDY    56  49  77 SW6       30.05R
COLUMBIA OWENS CLOUDY    57  48  72 SW3       30.06R
MCENTIRE ANGB  MOCLDY    56  49  75 SW6       30.05R
ORANGEBURG     CLOUDY    52  50  93 S3        30.06R
SUMTER SHAW    CLEAR     58  49  72 S9        30.02R
NEWBERRY       CLOUDY    52  50  93 S3        30.08R
AIKEN          CLOUDY    50  50 100 CALM      30.08R FOG
MANNING        FAIR      54  48  82 S3        30.05S
LANCASTER      CLOUDY    55  48  76 SW3       30.05R
WINNSBORO      MOCLDY    55  48  76 S8        30.03S


...EASTERN AND COASTAL SOUTH CAROLINA...

CITY           SKY/WX    TMP DP  RH WIND       PRES   REMARKS
N MYRTLE BCH   CLEAR     57  49  74 S6        30.04S
CONWAY         FAIR      57  48  72 S5        30.05R
MARION         FAIR      57  46  67 CALM      30.04S
HARTSVILLE     FAIR      54  46  76 CALM      30.03R
FLORENCE       CLEAR     59  48  67 S5        30.04R
DARLINGTON     CLEAR     59  47  64 CALM      30.04R
CHARLESTON APT CLEAR     58  47  66 SW3       30.05R
WALTERBORO     CLOUDY    55 N/A N/A CALM      30.06S
BEAUFORT       CLOUDY    58  54  86 E5        30.05S
HILTON HEAD    MOCLDY    59  55  88 NE5       30.06R


...EASTERN GEORGIA...

CITY           SKY/WX    TMP DP  RH WIND       PRES   REMARKS
AUGUSTA BUSH F CLOUDY    57  51  80 SE3       30.04R
AUGUSTA DANIEL CLOUDY    56  50  80 SE3       30.05R
THOMSON        CLOUDY    56  54  94 CALM      30.09R
WASHINGTON     FAIR      55  54  94 CALM      30.04S
CLAXTON        FAIR      63  59  88 CALM      30.03S
SYLVANIA       MOCLDY   N/A N/A N/A E3        30.05R
STATESBORO     PTCLDY    65  57  74 S3        30.03R
SAVANNAH       CLOUDY    62  55  77 SE10      30.05R


...SOUTHERN NORTH CAROLINA...

CITY           SKY/WX    TMP DP  RH WIND       PRES   REMARKS
CHARLOTTE      PTCLDY    52  43  71 W5        30.05R
MONROE         CLEAR     54  40  59 CALM      30.03R
WADESBORO      MOCLDY    56  44  63 CALM      30.04R
ROCKINGHAM     CLOUDY    56  48  75 SW3       30.04R
RUTHERFORDTON  PTCLDY    55  42  62 SE7       30.03R
ASHEVILLE      CLEAR     53  41  63 S8        30.01R

$$



USA.gov is the U.S. government's official web portal to all federal, state and local government web resources and services.